Flag for Slovakia Weather past 2 weeks in Piešťany, Slovakia

Now
28 °F

Ice fog.


Feels Like: 28 °F
Forecast: 17 / 36 °F
Wind: 2 mph from North

Location: Piestany

Current Time: Jan 27, 2015 at 10:36:02 PM

Latest Report: Jan 27, 2015 at 10:00 PM


Visibility: 1 mi

Pressure: 30.04 "Hg

Humidity: 93%

Dew point: 27 °F

Location of PiešťanyLocation

Historic Weather in Piešťany — Graph

°F

Piešťany temperature yesterday

Maximum temperature yesterday: 36 °F (at 1:00 PM)
Minimum temperature yesterday: 19 °F (at 9:00 PM)
Average temperature yesterday: 30 °F

Past Weeks' High & Low Weather Summary

 TemperatureHumidityPressure
High50 °F (Jan 23, 1:00 PM)100% (Jan 14, 9:30 PM)30.27 "Hg (Jan 14, 9:30 PM)
Low14 °F (Jan 27, 4:30 AM)49% (Jan 13, 1:30 PM)29.83 "Hg (Jan 17, 3:30 AM)
Average37 °F82%30.01 "Hg
* Reported Jan 12 9:00 PM — Jan 27 9:30 PM, Piešťany, Weather by CustomWeather, © 2014

Note: Actual official high and low records may vary slightly from our data, if they occured in-between our weather recording intervals... More about our weather records

Advertising

Piešťany weather history for previous 24 hours

 ConditionsComfort  
Time TempWeatherWind HumidityBarometerVisibility
9:30 PM
Jan 27
28 °FIce fog.2 mph93%30.04 "Hg1 mi
9:00 PM28 °FIce fog.1 mph93%30.04 "Hg2 mi
8:30 PM28 °FIce fog.2 mph93%30.04 "Hg2 mi
8:00 PM28 °FIce fog.2 mph93%30.04 "Hg2 mi
7:30 PM28 °FIce fog.No wind93%30.04 "Hg2 mi
7:00 PM28 °FIce fog.No wind93%30.01 "Hg2 mi
6:30 PM28 °FIce fog.1 mph93%30.01 "Hg1 mi
6:00 PM28 °FIce fog.No wind93%30.01 "Hg2 mi
5:30 PM28 °FIce fog.No wind93%30.01 "Hg2 mi
5:00 PM28 °FIce fog.No wind93%30.01 "Hg1 mi
4:30 PM28 °FLight snow. Ice fog.No wind93%29.98 "Hg1 mi
4:00 PM28 °FLight snow. Ice fog.No wind93%29.98 "Hg1 mi
3:30 PM28 °FLight snow. Ice fog.1 mph93%29.98 "Hg1 mi
3:00 PM28 °FIce fog.No wind86%29.98 "Hg2 mi
2:30 PM28 °FIce fog.No wind86%29.98 "Hg1 mi
2:00 PM28 °FIce fog.1 mph86%29.98 "Hg1 mi
1:30 PM28 °FIce fog.1 mph86%29.98 "Hg1 mi
1:00 PM28 °FLight snow. Ice fog.1 mph86%29.98 "Hg1 mi
12:30 PM28 °FLight snow. Ice fog.2 mph86%29.98 "Hg1 mi
12:00 PM28 °FLight snow. Ice fog.3 mph93%29.98 "Hg1 mi
11:30 AM28 °FLight snow. Ice fog.3 mph86%29.98 "Hg1 mi
11:00 AM28 °FLight snow. Ice fog.5 mph86%30.01 "Hg1 mi
10:30 AM27 °FLight snow. Ice fog.5 mph93%30.01 "Hg1 mi
10:00 AM27 °FLight snow. Ice fog.6 mph93%30.01 "Hg1 mi
9:30 AM27 °FLight snow. Ice fog.3 mph93%29.98 "Hg1 mi
9:00 AM25 °FLight snow. Ice fog.1 mph93%29.98 "Hg1 mi
8:30 AM25 °FLight snow. Ice fog.No wind93%29.98 "Hg1 mi
8:00 AM25 °FLight snow. Ice fog.1 mph93%29.98 "Hg1 mi
7:30 AM23 °FBroken clouds.1 mph93%29.98 "Hg4 mi
7:00 AM23 °FClear.3 mph93%30.01 "Hg4 mi
4:30 AM14 °FIce fog.2 mph92%30.01 "Hg3 mi
4:00 AM16 °FPassing clouds.No wind100%30.01 "Hg1 mi
3:30 AM18 °FIce fog.No wind93%30.04 "Hg0 mi
3:00 AM16 °FIce fog.2 mph100%30.04 "Hg2 mi
2:30 AM16 °FIce fog.No wind93%30.07 "Hg3 mi
2:00 AM18 °FIce fog.1 mph93%30.07 "Hg1 mi
1:30 AM19 °FIce fog.No wind93%30.07 "Hg2 mi
1:00 AM19 °FIce fog.3 mph100%30.09 "Hg3 mi
12:30 AM18 °FPassing clouds.No wind93%30.09 "Hg5 mi
12:00 AM18 °FIce fog.1 mph93%30.09 "Hg2 mi
11:30 PM
Jan 26
19 °FIce fog.1 mph93%30.12 "Hg2 mi
11:00 PM19 °FIce fog.2 mph93%30.12 "Hg2 mi
10:30 PM19 °FCold.No wind93%30.12 "Hg4 mi
10:00 PM21 °FIce fog.2 mph93%30.15 "Hg3 mi
Weather by CustomWeather, © 2014

See weather overviewHow to use our weather pages